Theta_e
316 317 317 317 317 317 317 316 315 314 314 314 314 313 314 315 316 312 304 309 313 325 324 314 313 313 314 314 317 315 300 295 298 300 302 308 305 310 307 302 310 314 319 328 334
317 317 317 317 316 315 315 316 315 314 313 313 313 312 312 313 307 304 311 319 320 325 313 309 305 309 309 311 311 307 300 298 304 305 305 308 306 307 303 303 311 322 329 333 332
316 317 317 316 315 314 314 314 313 313 312 312 311 311 311 311 300 300 318 320 320 320 317 311 308 308 308 308 307 306 300 304 306 308 310 308 307 310 304 299 306 319 324 328 327
316 316 316 314 315 314 313 313 311 311 310 310 309 310 310 306 286 302 317 320 322 316 317 308 306 305 302 301 307 300 305 307 308 309 309 306 309 305 305 302 307 320 327 325 325
316 315 314 314 314 313 311 310 309 309 308 308 309 309 305 296 295 308 314 314 314 313 313 306 302 304 299 302 305 300 303 306 309 309 309 310 306 305 305 306 306 315 320 322 323
316 314 313 313 313 312 309 309 309 310 309 308 308 309 299 289 304 308 307 309 312 310 312 309 303 306 302 302 302 304 304 304 305 304 307 305 306 306 304 304 303 306 306 306 315
315 314 312 313 312 311 309 309 309 309 307 307 308 305 297 293 304 307 306 310 311 312 309 311 306 305 303 300 304 303 299 301 302 302 302 305 300 300 305 304 302 300 301 304 305
315 313 312 311 311 310 309 308 309 309 309 309 308 302 292 305 305 304 307 308 312 315 313 314 310 305 301 302 300 297 298 292 299 301 302 300 292 300 304 301 301 299 298 300 303
312 312 312 311 311 310 310 310 309 309 308 309 302 298 291 308 301 304 306 303 309 312 312 315 309 302 300 294 292 294 288 291 295 300 300 298 292 299 302 299 299 299 300 301 301
311 312 310 312 310 311 312 311 310 307 306 306 303 293 297 295 302 305 308 307 302 307 305 307 302 296 293 293 285 288 289 292 292 297 298 296 293 298 298 296 298 299 300 300 299
309 310 310 311 311 311 307 299 292 291 296 291 293 293 295 302 306 304 305 302 301 303 296 301 293 289 292 292 293 293 291 291 293 297 296 295 293 297 298 294 295 297 298 299 299
309 309 310 311 311 311 302 294 295 296 288 297 297 298 301 301 296 299 305 295 298 295 298 296 291 294 297 296 294 293 289 289 293 297 295 293 293 296 297 296 297 297 297 297 297
309 308 310 310 311 302 297 298 303 301 289 294 297 296 296 299 295 295 300 298 296 294 294 291 293 298 297 294 292 289 289 287 288 292 292 291 288 291 294 294 297 298 297 297 297
308 308 309 310 302 299 295 302 303 302 279 289 292 296 299 296 294 302 303 301 295 293 295 294 297 295 294 292 293 286 292 292 290 288 284 290 280 285 291 292 293 293 294 295 296
308 309 309 309 297 295 300 302 302 297 274 291 292 302 299 293 294 298 306 302 294 294 294 291 292 292 291 293 294 289 293 291 290 287 285 285 281 283 286 288 290 291 292 293 298
308 309 308 304 301 301 303 302 296 277 276 286 291 291 292 294 295 297 298 304 302 295 294 292 296 295 294 297 297 295 291 289 288 286 279 284 282 280 284 287 290 291 293 297 298
309 310 307 306 297 303 303 294 277 276 288 287 291 293 292 291 293 292 294 293 290 286 286 289 290 294 296 292 295 293 286 279 278 278 276 284 282 286 288 290 291 292 295 297 298
309 308 305 304 303 303 298 284 274 284 283 293 294 293 289 292 291 294 292 289 293 289 285 283 282 292 295 292 290 290 286 277 273 274 277 283 280 286 289 291 293 295 297 297 298
307 299 299 303 304 301 289 276 277 279 285 290 292 288 289 292 291 292 290 289 291 290 284 284 283 292 294 297 295 290 286 287 279 277 273 279 283 287 289 289 292 293 296 296 298
295 296 298 304 303 296 284 284 284 292 293 293 285 288 284 289 290 289 290 293 292 294 292 287 282 291 294 296 295 292 292 282 278 272 272 276 277 281 285 288 292 293 295 296 299
296 292 299 304 302 290 279 282 290 296 295 290 288 288 289 288 289 289 288 294 294 293 293 290 285 286 292 290 289 290 289 286 284 279 274 273 277 284 288 291 292 295 295 296 299
290 286 300 302 293 285 280 289 296 293 294 293 291 290 289 288 286 287 287 289 294 293 289 291 286 283 286 293 295 291 289 289 282 276 275 275 277 287 288 291 294 295 297 298 300
288 288 299 298 284 282 290 292 294 292 291 291 290 291 290 288 285 288 289 294 294 292 290 292 282 275 282 286 291 289 289 289 286 283 274 274 278 289 287 291 294 294 297 299 299
288 281 287 292 290 289 287 290 289 294 292 292 290 291 289 287 289 286 287 292 293 292 298 295 285 281 277 280 284 281 287 288 286 279 282 279 283 285 287 290 291 293 296 299 298
287 285 289 280 286 286 287 291 291 289 292 292 289 289 288 284 286 286 288 289 292 295 291 289 278 277 283 287 285 285 286 287 284 287 283 286 284 287 289 291 292 293 297 298 296
284 282 285 283 286 286 289 288 290 292 292 289 287 291 289 287 287 286 288 287 287 288 288 288 277 280 280 285 284 281 285 287 287 287 285 284 284 290 290 289 291 293 296 297 296
286 287 286 285 283 288 288 289 291 291 295 293 292 290 289 291 291 290 291 291 290 288 286 285 280 276 273 282 281 277 283 284 285 287 288 283 289 289 289 290 292 294 296 297 296
Wind_Speed
19 19 18 20 20 19 19 18 16 12 12 11 12 9 9 11 12 12 12 7 11 17 3 7 4 4 1 4 2 2 5 13 11 11 3 10 10 7 8 3 4 4 4 8 9
17 20 21 21 19 19 19 18 16 11 10 9 10 9 7 8 7 12 7 14 16 17 4 10 8 5 4 4 3 7 10 15 15 16 4 7 7 13 8 6 7 6 6 7 6
18 21 22 23 23 20 18 17 11 8 8 7 8 7 7 3 3 7 20 21 18 16 7 5 7 6 5 3 4 7 16 6 13 5 7 5 15 10 9 4 4 10 7 5 7
21 21 23 25 24 18 15 12 4 7 3 5 4 5 2 2 8 3 16 19 24 16 13 10 7 9 7 8 6 6 7 15 5 6 5 4 14 15 9 5 7 10 12 6 8
20 21 23 25 21 12 8 6 3 3 1 2 4 2 3 3 8 8 14 16 12 19 18 8 9 6 6 6 8 2 12 15 9 7 11 6 14 19 19 8 2 10 6 9 7
20 21 22 23 16 10 7 7 6 6 4 2 1 4 1 7 6 4 10 13 13 18 17 9 8 7 5 6 11 8 2 7 8 8 15 17 15 17 9 7 2 10 9 7 7
19 20 18 21 15 8 7 6 6 4 2 2 2 2 3 11 3 8 9 8 12 17 11 10 5 6 7 6 4 4 9 4 12 7 7 16 17 19 11 6 3 2 4 5 7
19 18 17 16 14 10 9 6 5 4 3 3 2 1 6 4 8 8 5 6 5 7 6 10 7 6 3 2 5 5 6 5 5 8 6 9 11 16 9 8 7 3 1 4 6
19 16 17 12 13 11 10 10 6 4 3 3 3 2 7 8 1 3 2 2 5 3 4 7 3 4 1 7 6 3 7 7 8 11 6 8 4 7 4 6 9 6 6 5 6
18 17 15 14 10 13 15 12 7 5 2 3 2 2 2 4 3 5 4 6 3 6 8 8 5 5 3 6 15 13 12 11 12 9 6 8 6 5 4 4 9 8 7 6 4
18 16 16 14 11 11 9 3 5 5 2 2 2 4 4 5 3 8 2 3 3 13 7 13 7 14 11 4 4 9 7 10 4 5 5 7 4 10 6 2 5 8 7 6 4
19 16 17 14 12 11 2 4 2 4 4 4 5 2 4 4 3 5 2 3 3 9 13 7 9 5 8 4 4 10 6 6 1 5 5 6 13 9 9 6 7 7 7 7 4
19 17 17 14 13 4 3 1 0 2 0 4 1 3 3 6 5 3 3 1 5 9 13 8 8 9 9 4 4 1 6 4 4 1 1 4 6 6 8 4 6 6 5 5 8
20 19 15 13 1 3 1 4 3 1 4 6 7 4 0 1 4 3 9 2 1 16 11 7 4 9 6 4 5 1 6 7 6 6 7 3 6 7 7 10 8 8 7 7 6
21 19 12 7 1 2 5 3 3 3 5 8 5 6 1 3 3 5 4 5 9 7 5 2 4 9 5 5 5 6 5 7 4 6 5 2 0 7 1 9 9 9 8 7 8
22 15 8 2 1 2 2 2 4 6 6 5 6 8 2 2 3 3 2 3 2 12 11 6 2 5 2 3 3 1 6 8 6 4 1 5 6 6 6 8 7 5 7 9 9
21 9 1 2 2 3 2 4 6 7 3 5 4 2 8 9 3 2 2 4 5 7 4 5 4 1 2 5 3 4 6 3 1 1 5 2 4 13 6 6 7 10 10 9 9
19 5 2 2 2 1 2 4 10 3 3 2 3 5 3 2 7 5 3 4 5 7 5 4 3 1 4 3 4 4 2 6 6 4 4 4 9 9 6 7 8 10 11 8 8
10 2 1 2 3 2 4 7 7 6 4 2 1 2 3 2 2 3 3 2 4 3 6 5 0 1 1 2 0 5 5 3 5 1 3 5 7 8 1 2 7 9 9 8 7
1 2 1 2 3 4 4 2 2 4 3 3 1 2 4 4 3 2 1 2 3 4 4 6 6 2 4 1 4 3 3 2 3 3 4 5 5 7 4 7 8 9 10 8 6
3 3 1 3 2 3 3 3 3 4 4 1 2 1 3 6 7 5 6 4 4 5 4 6 4 4 4 5 8 4 3 2 4 4 4 2 7 5 8 8 12 10 9 8 8
2 3 3 3 1 0 2 5 2 2 0 3 2 2 1 3 3 3 5 2 1 7 6 6 5 4 3 4 4 1 5 5 4 5 1 4 8 3 7 8 9 10 8 7 7
2 1 3 2 3 3 4 1 0 1 1 2 3 2 1 2 4 3 4 2 2 3 6 5 1 4 2 3 1 5 4 3 4 3 6 6 7 4 3 7 6 8 7 7 8
3 3 5 3 0 3 4 3 2 1 2 2 2 3 2 2 4 3 2 2 2 3 4 5 2 5 7 5 5 6 9 7 6 3 4 7 5 2 4 7 6 6 7 8 9
4 2 2 3 2 3 3 5 1 1 2 1 3 2 2 2 2 3 2 2 3 2 3 4 4 2 3 3 3 3 7 12 10 11 9 10 8 6 10 11 11 8 6 7 8
4 3 4 3 5 4 4 4 2 5 3 3 0 7 4 3 5 6 5 4 4 1 2 2 1 2 2 1 0 2 6 8 14 9 9 3 7 6 5 3 5 8 8 8 9
2 2 3 5 6 2 4 4 6 7 1 3 3 2 1 1 1 2 3 4 5 8 4 3 5 3 4 3 3 7 13 14 7 8 11 10 14 2 5 10 9 8 9 10 9
Wind_Direction
338 327 317 320 321 316 302 291 279 267 265 270 277 281 288 285 286 238 224 221 219 247 228 140 140 157 81 155 150 30 140 208 210 221 210 353 351 313 305 88 70 19 129 137 130
330 322 327 324 323 316 309 293 277 275 260 262 271 275 286 298 283 237 214 227 240 257 170 155 182 140 183 191 190 157 195 213 216 205 118 330 329 331 344 342 29 59 27 104 100
340 332 338 333 327 323 312 304 284 265 254 260 265 284 297 319 268 239 226 234 238 241 221 166 134 152 206 133 179 191 206 148 218 219 39 0 317 327 312 298 228 159 163 138 127
339 343 341 337 324 324 322 332 169 236 260 253 289 279 294 175 223 207 203 209 238 234 206 163 150 177 177 177 188 157 198 199 127 125 135 301 323 300 299 259 237 180 157 141 148
345 348 349 342 349 353 13 34 27 62 101 23 286 214 140 210 247 293 328 303 241 208 207 170 170 163 172 162 173 128 173 201 143 151 175 123 271 279 297 282 306 113 135 155 170
349 352 354 358 9 36 33 39 36 39 32 15 351 131 124 254 257 286 352 310 186 192 195 189 183 195 130 154 168 163 155 127 112 192 185 168 219 254 279 261 109 129 140 160 184
351 355 2 11 19 43 37 27 27 21 44 42 110 164 186 232 199 16 329 311 184 192 194 185 193 182 136 132 189 160 172 86 182 187 190 174 191 227 227 297 170 123 157 167 163
351 356 1 8 23 17 2 1 346 313 279 299 218 140 254 254 244 280 279 8 359 175 228 177 220 195 156 145 77 120 116 144 199 172 207 156 222 210 195 239 228 211 229 281 281
348 354 348 356 356 348 333 324 317 7 207 157 117 140 272 294 134 96 263 36 352 184 212 241 194 181 166 118 99 217 160 178 178 198 155 174 205 224 213 187 243 224 235 226 273
348 346 345 345 350 334 328 313 295 3 11 196 187 306 299 303 341 109 18 101 278 154 220 184 181 150 139 162 179 186 179 180 185 187 180 183 222 251 228 195 220 226 240 257 278
348 342 336 333 338 337 340 18 26 351 41 283 227 226 228 306 234 72 59 118 196 187 170 173 156 192 183 110 172 124 120 180 210 174 147 207 207 250 255 287 268 239 223 241 266
343 342 326 325 330 338 38 86 117 197 329 328 260 65 41 314 101 58 244 40 218 125 126 147 191 152 127 153 92 155 134 184 26 230 171 182 228 234 246 231 217 225 221 218 166
338 336 325 323 324 45 57 133 113 97 331 316 330 31 352 341 16 32 38 285 304 124 178 137 138 137 165 143 128 74 179 165 153 77 83 110 286 221 252 244 260 238 209 180 177
337 330 324 319 349 143 95 272 322 92 79 5 326 91 161 152 104 152 204 244 156 160 139 87 145 143 157 148 130 132 198 174 179 148 200 166 265 251 207 230 225 215 186 186 173
336 324 316 300 278 124 176 216 302 358 40 12 345 297 218 56 190 175 235 161 135 113 115 78 101 153 136 152 157 219 171 159 136 131 130 215 69 268 195 232 231 216 199 175 163
338 327 319 336 182 216 163 34 74 47 31 357 315 311 27 87 76 0 34 48 104 66 56 59 22 54 62 55 101 134 82 45 53 73 262 198 169 269 208 202 202 168 192 167 161
339 329 215 297 258 139 111 61 38 67 238 357 22 168 13 5 359 78 67 96 118 107 75 41 3 335 8 107 17 70 85 38 73 218 221 164 172 242 247 240 197 177 179 173 163
337 107 255 253 137 69 84 51 71 264 289 257 222 113 59 7 7 5 108 97 49 94 108 142 172 212 353 53 158 155 167 152 186 203 228 182 229 244 239 260 202 176 168 157 155
342 23 35 256 156 45 73 53 175 207 197 227 225 221 120 97 109 9 4 58 133 164 110 133 318 133 220 116 73 154 224 176 109 37 69 221 284 308 57 135 152 154 150 161 166
66 40 294 102 102 59 73 140 196 181 253 255 307 153 119 147 132 173 209 247 169 177 134 172 115 235 151 146 243 242 190 121 356 143 239 266 271 241 229 191 162 160 163 167 164
39 55 310 103 39 35 101 194 302 216 233 273 321 71 143 146 164 185 187 180 191 167 166 152 113 150 153 214 182 164 199 157 129 151 182 296 260 224 223 185 166 161 168 175 175
13 54 332 42 353 25 133 195 171 269 234 297 278 298 303 100 98 111 156 167 221 153 168 197 123 145 183 263 234 240 215 177 141 244 209 148 275 314 247 171 160 166 177 179 169
70 252 353 32 79 343 298 230 252 72 225 319 288 295 335 103 100 107 131 126 37 122 162 177 122 91 71 357 280 223 217 170 114 74 206 147 259 354 101 144 172 162 178 166 152
72 39 333 36 281 332 357 223 225 176 281 316 290 335 344 41 45 139 113 38 34 98 86 84 125 161 184 201 144 198 194 191 146 171 201 223 281 273 194 172 180 184 180 165 168
33 29 63 323 341 341 311 308 72 232 180 35 314 276 304 239 102 120 110 40 13 69 77 108 171 122 255 136 137 215 191 181 193 212 201 247 218 223 210 191 191 190 169 158 170
96 44 348 287 291 291 359 343 71 336 44 335 297 327 266 249 203 197 135 178 195 115 99 29 159 94 304 254 65 292 247 221 222 216 241 200 267 228 247 236 192 191 171 178 185
339 14 103 305 328 295 24 346 358 336 210 87 338 340 301 102 301 356 193 176 160 154 149 112 127 89 265 17 2 299 227 210 211 204 214 210 225 222 231 192 200 195 187 188 188